<?xml version="1.0" encoding="UTF-8" standalone="no" ?>
<gpx xmlns="http://www.topografix.com/GPX/1/1" xmlns:xsi="http://www.w3.org/2001/XMLSchema-instance" xsi:schemaLocation="http://www.topografix.com/GPX/1/1 http://www.topografix.com/GPX/1/1/gpx.xsd" version="1.1" creator="VisuGPX - https://www.visugpx.com">
  <metadata>
    <name>Circuit de la Chapelle du marais - Rieulay</name>
    <desc><![CDATA[Circuit entre terril et Scarpe canalisée]]></desc>
  </metadata>
  <trk>
    <name><![CDATA[track]]></name>
    <trkseg>
      <trkpt lat="50.37879" lon="3.25318">
        <ele>18</ele>
        <time>2008-09-24T18:15:04Z</time>
      </trkpt>
      <trkpt lat="50.37897" lon="3.25262">
        <ele>18</ele>
        <time>2008-09-24T18:15:04Z</time>
      </trkpt>
      <trkpt lat="50.37915" lon="3.25261">
        <ele>17</ele>
        <time>2008-09-24T18:15:04Z</time>
      </trkpt>
      <trkpt lat="50.37944" lon="3.25214">
        <ele>17</ele>
        <time>2008-09-24T18:15:04Z</time>
      </trkpt>
      <trkpt lat="50.37969" lon="3.25156">
        <ele>17</ele>
        <time>2008-09-24T18:15:04Z</time>
      </trkpt>
      <trkpt lat="50.38002" lon="3.25195">
        <ele>17</ele>
        <time>2008-09-24T18:15:04Z</time>
      </trkpt>
      <trkpt lat="50.38013" lon="3.25197">
        <ele>17</ele>
        <time>2008-09-24T18:15:04Z</time>
      </trkpt>
      <trkpt lat="50.38028" lon="3.25205">
        <ele>17</ele>
        <time>2008-09-24T18:15:04Z</time>
      </trkpt>
      <trkpt lat="50.38042" lon="3.25242">
        <ele>17</ele>
        <time>2008-09-24T18:15:04Z</time>
      </trkpt>
      <trkpt lat="50.38066" lon="3.25262">
        <ele>17</ele>
        <time>2008-09-24T18:15:04Z</time>
      </trkpt>
      <trkpt lat="50.38085" lon="3.25258">
        <ele>17</ele>
        <time>2008-09-24T18:15:04Z</time>
      </trkpt>
      <trkpt lat="50.38107" lon="3.25249">
        <ele>17</ele>
        <time>2008-09-24T18:15:04Z</time>
      </trkpt>
      <trkpt lat="50.38114" lon="3.25252">
        <ele>17</ele>
        <time>2008-09-24T18:15:04Z</time>
      </trkpt>
      <trkpt lat="50.38134" lon="3.25278">
        <ele>17</ele>
        <time>2008-09-24T18:15:04Z</time>
      </trkpt>
      <trkpt lat="50.38148" lon="3.25283">
        <ele>17</ele>
        <time>2008-09-24T18:15:04Z</time>
      </trkpt>
      <trkpt lat="50.3816" lon="3.25287">
        <ele>17</ele>
        <time>2008-09-24T18:15:04Z</time>
      </trkpt>
      <trkpt lat="50.38186" lon="3.2525">
        <ele>17</ele>
        <time>2008-09-24T18:15:04Z</time>
      </trkpt>
      <trkpt lat="50.38198" lon="3.25233">
        <ele>17</ele>
        <time>2008-09-24T18:15:04Z</time>
      </trkpt>
      <trkpt lat="50.38206" lon="3.25225">
        <ele>17</ele>
        <time>2008-09-24T18:15:04Z</time>
      </trkpt>
      <trkpt lat="50.38221" lon="3.25221">
        <ele>17</ele>
        <time>2008-09-24T18:15:04Z</time>
      </trkpt>
      <trkpt lat="50.38288" lon="3.25229">
        <ele>17</ele>
        <time>2008-09-24T18:15:04Z</time>
      </trkpt>
      <trkpt lat="50.38305" lon="3.25245">
        <ele>17</ele>
        <time>2008-09-24T18:15:04Z</time>
      </trkpt>
      <trkpt lat="50.38355" lon="3.25229">
        <ele>17</ele>
        <time>2008-09-24T18:15:04Z</time>
      </trkpt>
      <trkpt lat="50.38393" lon="3.25199">
        <ele>17</ele>
        <time>2008-09-24T18:15:04Z</time>
      </trkpt>
      <trkpt lat="50.38436" lon="3.2512">
        <ele>17</ele>
        <time>2008-09-24T18:15:04Z</time>
      </trkpt>
      <trkpt lat="50.38442" lon="3.25115">
        <ele>17</ele>
        <time>2008-09-24T18:15:04Z</time>
      </trkpt>
      <trkpt lat="50.38491" lon="3.25078">
        <ele>17</ele>
        <time>2008-09-24T18:15:04Z</time>
      </trkpt>
      <trkpt lat="50.38518" lon="3.25014">
        <ele>17</ele>
        <time>2008-09-24T18:15:04Z</time>
      </trkpt>
      <trkpt lat="50.38533" lon="3.2499">
        <ele>17</ele>
        <time>2008-09-24T18:15:04Z</time>
      </trkpt>
      <trkpt lat="50.38543" lon="3.24962">
        <ele>17</ele>
        <time>2008-09-24T18:15:04Z</time>
      </trkpt>
      <trkpt lat="50.38543" lon="3.2494">
        <ele>17</ele>
        <time>2008-09-24T18:15:04Z</time>
      </trkpt>
      <trkpt lat="50.38531" lon="3.2489">
        <ele>17</ele>
        <time>2008-09-24T18:15:04Z</time>
      </trkpt>
      <trkpt lat="50.3854" lon="3.24876">
        <ele>17</ele>
        <time>2008-09-24T18:15:04Z</time>
      </trkpt>
      <trkpt lat="50.38549" lon="3.24847">
        <ele>18</ele>
        <time>2008-09-24T18:15:04Z</time>
      </trkpt>
      <trkpt lat="50.3857" lon="3.24837">
        <ele>18</ele>
        <time>2008-09-24T18:15:04Z</time>
      </trkpt>
      <trkpt lat="50.38635" lon="3.24547">
        <ele>17</ele>
        <time>2008-09-24T18:15:04Z</time>
      </trkpt>
      <trkpt lat="50.38678" lon="3.2433">
        <ele>16</ele>
        <time>2008-09-24T18:15:04Z</time>
      </trkpt>
      <trkpt lat="50.38703" lon="3.24341">
        <ele>17</ele>
        <time>2008-09-24T18:15:04Z</time>
      </trkpt>
      <trkpt lat="50.3871" lon="3.24385">
        <ele>18</ele>
        <time>2008-09-24T18:15:04Z</time>
      </trkpt>
      <trkpt lat="50.38735" lon="3.24425">
        <ele>18</ele>
        <time>2008-09-24T18:15:04Z</time>
      </trkpt>
      <trkpt lat="50.38867" lon="3.2462">
        <ele>19</ele>
        <time>2008-09-24T18:15:04Z</time>
      </trkpt>
      <trkpt lat="50.39163" lon="3.25061">
        <ele>18</ele>
        <time>2008-09-24T18:15:04Z</time>
      </trkpt>
      <trkpt lat="50.39185" lon="3.25083">
        <ele>18</ele>
        <time>2008-09-24T18:15:04Z</time>
      </trkpt>
      <trkpt lat="50.39202" lon="3.25094">
        <ele>18</ele>
        <time>2008-09-24T18:15:04Z</time>
      </trkpt>
      <trkpt lat="50.39453" lon="3.25254">
        <ele>18</ele>
        <time>2008-09-24T18:15:04Z</time>
      </trkpt>
      <trkpt lat="50.39474" lon="3.2527">
        <ele>18</ele>
        <time>2008-09-24T18:15:04Z</time>
      </trkpt>
      <trkpt lat="50.39498" lon="3.25301">
        <ele>18</ele>
        <time>2008-09-24T18:15:04Z</time>
      </trkpt>
      <trkpt lat="50.39762" lon="3.256">
        <ele>18</ele>
        <time>2008-09-24T18:15:04Z</time>
      </trkpt>
      <trkpt lat="50.39782" lon="3.25637">
        <ele>18</ele>
        <time>2008-09-24T18:15:04Z</time>
      </trkpt>
      <trkpt lat="50.39852" lon="3.25824">
        <ele>18</ele>
        <time>2008-09-24T18:15:04Z</time>
      </trkpt>
      <trkpt lat="50.39867" lon="3.25848">
        <ele>18</ele>
        <time>2008-09-24T18:15:04Z</time>
      </trkpt>
      <trkpt lat="50.39924" lon="3.25906">
        <ele>17</ele>
        <time>2008-09-24T18:15:04Z</time>
      </trkpt>
      <trkpt lat="50.39944" lon="3.25933">
        <ele>17</ele>
        <time>2008-09-24T18:15:04Z</time>
      </trkpt>
      <trkpt lat="50.39955" lon="3.25963">
        <ele>17</ele>
        <time>2008-09-24T18:15:04Z</time>
      </trkpt>
      <trkpt lat="50.40001" lon="3.26147">
        <ele>16</ele>
        <time>2008-09-24T18:15:04Z</time>
      </trkpt>
      <trkpt lat="50.40041" lon="3.26296">
        <ele>17</ele>
        <time>2008-09-24T18:15:04Z</time>
      </trkpt>
      <trkpt lat="50.40089" lon="3.26407">
        <ele>17</ele>
        <time>2008-09-24T18:15:04Z</time>
      </trkpt>
      <trkpt lat="50.40096" lon="3.26434">
        <ele>17</ele>
        <time>2008-09-24T18:15:04Z</time>
      </trkpt>
      <trkpt lat="50.40173" lon="3.26817">
        <ele>17</ele>
        <time>2008-09-24T18:15:04Z</time>
      </trkpt>
      <trkpt lat="50.40186" lon="3.26863">
        <ele>17</ele>
        <time>2008-09-24T18:15:04Z</time>
      </trkpt>
      <trkpt lat="50.40202" lon="3.26904">
        <ele>17</ele>
        <time>2008-09-24T18:15:04Z</time>
      </trkpt>
      <trkpt lat="50.40254" lon="3.26977">
        <ele>17</ele>
        <time>2008-09-24T18:15:04Z</time>
      </trkpt>
      <trkpt lat="50.40275" lon="3.27047">
        <ele>17</ele>
        <time>2008-09-24T18:15:04Z</time>
      </trkpt>
      <trkpt lat="50.40294" lon="3.27148">
        <ele>17</ele>
        <time>2008-09-24T18:15:04Z</time>
      </trkpt>
      <trkpt lat="50.40309" lon="3.27205">
        <ele>17</ele>
        <time>2008-09-24T18:15:04Z</time>
      </trkpt>
      <trkpt lat="50.40328" lon="3.2726">
        <ele>17</ele>
        <time>2008-09-24T18:15:04Z</time>
      </trkpt>
      <trkpt lat="50.40365" lon="3.27347">
        <ele>17</ele>
        <time>2008-09-24T18:15:04Z</time>
      </trkpt>
      <trkpt lat="50.40385" lon="3.27377">
        <ele>17</ele>
        <time>2008-09-24T18:15:04Z</time>
      </trkpt>
      <trkpt lat="50.40448" lon="3.27459">
        <ele>17</ele>
        <time>2008-09-24T18:15:04Z</time>
      </trkpt>
      <trkpt lat="50.40355" lon="3.27544">
        <ele>17</ele>
        <time>2008-09-24T18:15:04Z</time>
      </trkpt>
      <trkpt lat="50.40358" lon="3.27564">
        <ele>17</ele>
        <time>2008-09-24T18:15:04Z</time>
      </trkpt>
      <trkpt lat="50.40363" lon="3.27653">
        <ele>17</ele>
        <time>2008-09-24T18:15:04Z</time>
      </trkpt>
      <trkpt lat="50.40349" lon="3.27727">
        <ele>17</ele>
        <time>2008-09-24T18:15:04Z</time>
      </trkpt>
      <trkpt lat="50.4035" lon="3.27839">
        <ele>17</ele>
        <time>2008-09-24T18:15:04Z</time>
      </trkpt>
      <trkpt lat="50.40167" lon="3.278">
        <ele>18</ele>
        <time>2008-09-24T18:15:04Z</time>
      </trkpt>
      <trkpt lat="50.40073" lon="3.27769">
        <ele>17</ele>
        <time>2008-09-24T18:15:04Z</time>
      </trkpt>
      <trkpt lat="50.39997" lon="3.27737">
        <ele>17</ele>
        <time>2008-09-24T18:15:04Z</time>
      </trkpt>
      <trkpt lat="50.39885" lon="3.27682">
        <ele>17</ele>
        <time>2008-09-24T18:15:04Z</time>
      </trkpt>
      <trkpt lat="50.3986" lon="3.27694">
        <ele>17</ele>
        <time>2008-09-24T18:15:04Z</time>
      </trkpt>
      <trkpt lat="50.39573" lon="3.27598">
        <ele>17</ele>
        <time>2008-09-24T18:15:04Z</time>
      </trkpt>
      <trkpt lat="50.39582" lon="3.27675">
        <ele>17</ele>
        <time>2008-09-24T18:15:04Z</time>
      </trkpt>
      <trkpt lat="50.39553" lon="3.27666">
        <ele>17</ele>
        <time>2008-09-24T18:15:04Z</time>
      </trkpt>
      <trkpt lat="50.39582" lon="3.27675">
        <ele>17</ele>
        <time>2008-09-24T18:15:04Z</time>
      </trkpt>
      <trkpt lat="50.39596" lon="3.27811">
        <ele>17</ele>
        <time>2008-09-24T18:15:04Z</time>
      </trkpt>
      <trkpt lat="50.39481" lon="3.27775">
        <ele>17</ele>
        <time>2008-09-24T18:15:04Z</time>
      </trkpt>
      <trkpt lat="50.39385" lon="3.27735">
        <ele>17</ele>
        <time>2008-09-24T18:15:04Z</time>
      </trkpt>
      <trkpt lat="50.39155" lon="3.27653">
        <ele>17</ele>
        <time>2008-09-24T18:15:04Z</time>
      </trkpt>
      <trkpt lat="50.3902" lon="3.27608">
        <ele>17</ele>
        <time>2008-09-24T18:15:04Z</time>
      </trkpt>
      <trkpt lat="50.38991" lon="3.27601">
        <ele>18</ele>
        <time>2008-09-24T18:15:04Z</time>
      </trkpt>
      <trkpt lat="50.38975" lon="3.27602">
        <ele>18</ele>
        <time>2008-09-24T18:15:04Z</time>
      </trkpt>
      <trkpt lat="50.38957" lon="3.27604">
        <ele>18</ele>
        <time>2008-09-24T18:15:04Z</time>
      </trkpt>
      <trkpt lat="50.38953" lon="3.27483">
        <ele>18</ele>
        <time>2008-09-24T18:15:04Z</time>
      </trkpt>
      <trkpt lat="50.38949" lon="3.27392">
        <ele>18</ele>
        <time>2008-09-24T18:15:04Z</time>
      </trkpt>
      <trkpt lat="50.38897" lon="3.26201">
        <ele>17</ele>
        <time>2008-09-24T18:15:04Z</time>
      </trkpt>
      <trkpt lat="50.38886" lon="3.259">
        <ele>17</ele>
        <time>2008-09-24T18:15:04Z</time>
      </trkpt>
      <trkpt lat="50.38869" lon="3.25823">
        <ele>17</ele>
        <time>2008-09-24T18:15:04Z</time>
      </trkpt>
      <trkpt lat="50.38731" lon="3.25886">
        <ele>17</ele>
        <time>2008-09-24T18:15:04Z</time>
      </trkpt>
      <trkpt lat="50.38695" lon="3.25653">
        <ele>16</ele>
        <time>2008-09-24T18:15:04Z</time>
      </trkpt>
      <trkpt lat="50.38654" lon="3.25525">
        <ele>17</ele>
        <time>2008-09-24T18:15:04Z</time>
      </trkpt>
      <trkpt lat="50.38608" lon="3.25394">
        <ele>18</ele>
        <time>2008-09-24T18:15:04Z</time>
      </trkpt>
      <trkpt lat="50.38568" lon="3.25406">
        <ele>18</ele>
        <time>2008-09-24T18:15:04Z</time>
      </trkpt>
      <trkpt lat="50.38548" lon="3.25354">
        <ele>17</ele>
        <time>2008-09-24T18:15:04Z</time>
      </trkpt>
      <trkpt lat="50.38547" lon="3.25283">
        <ele>17</ele>
        <time>2008-09-24T18:15:04Z</time>
      </trkpt>
      <trkpt lat="50.38548" lon="3.25222">
        <ele>17</ele>
        <time>2008-09-24T18:15:04Z</time>
      </trkpt>
      <trkpt lat="50.38555" lon="3.25177">
        <ele>17</ele>
        <time>2008-09-24T18:15:04Z</time>
      </trkpt>
      <trkpt lat="50.38569" lon="3.25134">
        <ele>17</ele>
        <time>2008-09-24T18:15:04Z</time>
      </trkpt>
      <trkpt lat="50.38602" lon="3.25083">
        <ele>17</ele>
        <time>2008-09-24T18:15:04Z</time>
      </trkpt>
      <trkpt lat="50.38629" lon="3.25052">
        <ele>17</ele>
        <time>2008-09-24T18:15:04Z</time>
      </trkpt>
      <trkpt lat="50.38655" lon="3.25015">
        <ele>18</ele>
        <time>2008-09-24T18:15:04Z</time>
      </trkpt>
      <trkpt lat="50.38659" lon="3.24985">
        <ele>18</ele>
        <time>2008-09-24T18:15:04Z</time>
      </trkpt>
      <trkpt lat="50.38631" lon="3.24973">
        <ele>18</ele>
        <time>2008-09-24T18:15:04Z</time>
      </trkpt>
      <trkpt lat="50.3861" lon="3.24952">
        <ele>17</ele>
        <time>2008-09-24T18:15:04Z</time>
      </trkpt>
      <trkpt lat="50.38597" lon="3.24925">
        <ele>18</ele>
        <time>2008-09-24T18:15:04Z</time>
      </trkpt>
      <trkpt lat="50.3857" lon="3.24837">
        <ele>18</ele>
        <time>2008-09-24T18:15:04Z</time>
      </trkpt>
      <trkpt lat="50.38549" lon="3.24848">
        <ele>18</ele>
        <time>2008-09-24T18:15:04Z</time>
      </trkpt>
      <trkpt lat="50.3854" lon="3.24876">
        <ele>17</ele>
        <time>2008-09-24T18:15:04Z</time>
      </trkpt>
      <trkpt lat="50.38531" lon="3.2489">
        <ele>17</ele>
        <time>2008-09-24T18:15:04Z</time>
      </trkpt>
      <trkpt lat="50.38543" lon="3.2494">
        <ele>17</ele>
        <time>2008-09-24T18:15:04Z</time>
      </trkpt>
      <trkpt lat="50.38543" lon="3.24963">
        <ele>17</ele>
        <time>2008-09-24T18:15:04Z</time>
      </trkpt>
      <trkpt lat="50.38533" lon="3.24991">
        <ele>17</ele>
        <time>2008-09-24T18:15:04Z</time>
      </trkpt>
      <trkpt lat="50.38518" lon="3.25015">
        <ele>17</ele>
        <time>2008-09-24T18:15:04Z</time>
      </trkpt>
      <trkpt lat="50.38491" lon="3.25079">
        <ele>17</ele>
        <time>2008-09-24T18:15:04Z</time>
      </trkpt>
      <trkpt lat="50.38436" lon="3.2512">
        <ele>17</ele>
        <time>2008-09-24T18:15:04Z</time>
      </trkpt>
      <trkpt lat="50.38393" lon="3.25199">
        <ele>17</ele>
        <time>2008-09-24T18:15:04Z</time>
      </trkpt>
      <trkpt lat="50.38355" lon="3.25229">
        <ele>17</ele>
        <time>2008-09-24T18:15:04Z</time>
      </trkpt>
      <trkpt lat="50.38305" lon="3.25245">
        <ele>17</ele>
        <time>2008-09-24T18:15:04Z</time>
      </trkpt>
      <trkpt lat="50.38288" lon="3.25228">
        <ele>17</ele>
        <time>2008-09-24T18:15:04Z</time>
      </trkpt>
      <trkpt lat="50.3822" lon="3.25221">
        <ele>17</ele>
        <time>2008-09-24T18:15:04Z</time>
      </trkpt>
      <trkpt lat="50.38205" lon="3.25226">
        <ele>17</ele>
        <time>2008-09-24T18:15:04Z</time>
      </trkpt>
      <trkpt lat="50.38197" lon="3.25234">
        <ele>17</ele>
        <time>2008-09-24T18:15:04Z</time>
      </trkpt>
      <trkpt lat="50.38186" lon="3.25251">
        <ele>17</ele>
        <time>2008-09-24T18:15:04Z</time>
      </trkpt>
      <trkpt lat="50.3816" lon="3.25287">
        <ele>17</ele>
        <time>2008-09-24T18:15:04Z</time>
      </trkpt>
      <trkpt lat="50.38147" lon="3.25282">
        <ele>17</ele>
        <time>2008-09-24T18:15:04Z</time>
      </trkpt>
      <trkpt lat="50.38133" lon="3.25278">
        <ele>17</ele>
        <time>2008-09-24T18:15:04Z</time>
      </trkpt>
      <trkpt lat="50.38113" lon="3.25251">
        <ele>17</ele>
        <time>2008-09-24T18:15:04Z</time>
      </trkpt>
      <trkpt lat="50.38107" lon="3.25249">
        <ele>17</ele>
        <time>2008-09-24T18:15:04Z</time>
      </trkpt>
      <trkpt lat="50.38085" lon="3.25258">
        <ele>17</ele>
        <time>2008-09-24T18:15:04Z</time>
      </trkpt>
      <trkpt lat="50.38065" lon="3.25263">
        <ele>17</ele>
        <time>2008-09-24T18:15:04Z</time>
      </trkpt>
      <trkpt lat="50.38041" lon="3.25241">
        <ele>17</ele>
        <time>2008-09-24T18:15:04Z</time>
      </trkpt>
      <trkpt lat="50.38027" lon="3.25204">
        <ele>17</ele>
        <time>2008-09-24T18:15:04Z</time>
      </trkpt>
      <trkpt lat="50.38013" lon="3.25197">
        <ele>17</ele>
        <time>2008-09-24T18:15:04Z</time>
      </trkpt>
      <trkpt lat="50.38001" lon="3.25195">
        <ele>17</ele>
        <time>2008-09-24T18:15:04Z</time>
      </trkpt>
      <trkpt lat="50.37968" lon="3.25156">
        <ele>17</ele>
        <time>2008-09-24T18:15:04Z</time>
      </trkpt>
      <trkpt lat="50.37944" lon="3.25214">
        <ele>17</ele>
        <time>2008-09-24T18:15:04Z</time>
      </trkpt>
      <trkpt lat="50.37915" lon="3.25261">
        <ele>17</ele>
        <time>2008-09-24T18:15:04Z</time>
      </trkpt>
      <trkpt lat="50.37897" lon="3.25263">
        <ele>18</ele>
        <time>2008-09-24T18:15:04Z</time>
      </trkpt>
      <trkpt lat="50.37879" lon="3.25319">
        <ele>18</ele>
        <time>2008-09-24T18:15:04Z</time>
      </trkpt>
      <trkpt lat="50.37879" lon="3.25318">
        <ele>18</ele>
        <time>2008-09-24T18:15:04Z</time>
      </trkpt>
    </trkseg>
  </trk>
</gpx>